H1 CPF 2 NER 2025 11 12 9 316 01 glonass140 H2 1903001 9140 44299 2025 11 12 0 0 0 2025 11 15 23 45 0 900 1 1 0 0 0 1 H9 10 0 60991 0.00000 0 22415140.352 -9279656.043 -7878280.532 10 0 60991 900.00000 0 21382915.131 -8746725.675 -10805129.044 10 0 60991 1800.00000 0 20115293.701 -7930073.207 -13521990.953 10 0 60991 2700.00000 0 18669661.481 -6814867.757 -15976002.793 10 0 60991 3600.00000 0 17107261.163 -5398613.212 -18119391.335 10 0 60991 4500.00000 0 15490618.859 -3691526.952 -19910409.320 10 0 60991 5400.00000 0 13880934.469 -1716384.151 -21314154.247 10 0 60991 6300.00000 0 12335546.137 492167.727 -22303253.898 10 0 60991 7200.00000 0 10905575.503 2888797.230 -22858404.921 10 0 60991 8100.00000 0 9633852.787 5419131.764 -22968753.759 10 0 60991 9000.00000 0 8553208.866 8021787.593 -22632112.249 10 0 60991 9900.00000 0 7685205.993 10630703.106 -21855003.458 10 0 60991 10800.00000 0 7039360.217 13177678.612 -20652536.647 10 0 60991 11700.00000 0 6612887.728 15595017.089 -19048113.560 10 0 60991 12600.00000 0 6390985.191 17818155.788 -17072971.605 10 0 60991 13500.00000 0 6347631.409 19788178.896 -14765572.724 10 0 60991 14400.00000 0 6446875.561 21454106.236 -12170849.904 10 0 60991 15300.00000 0 6644556.479 22774862.328 -9339326.249 10 0 60991 16200.00000 0 6890379.112 23720843.589 -6326124.184 10 0 60991 17100.00000 0 7130259.101 24275018.417 -3189884.683 10 0 60991 18000.00000 0 7308834.986 24433514.673 8381.625 10 0 60991 18900.00000 0 7372040.550 24205670.902 3206488.279 10 0 60991 19800.00000 0 7269627.373 23613550.296 6342287.648 10 0 60991 20700.00000 0 6957530.043 22690939.200 9354882.056 10 0 60991 21600.00000 0 6399973.384 21481873.631 12185807.265 10 0 60991 22500.00000 0 5571232.294 20038756.977 14780165.126 10 0 60991 23400.00000 0 4456969.728 18420149.009 17087683.455 10 0 60991 24300.00000 0 3055096.346 16688319.641 19063683.024 10 0 60991 25200.00000 0 1376115.563 14906670.291 20669933.743 10 0 60991 26100.00000 0 -557060.695 13137130.582 21875384.416 10 0 60991 27000.00000 0 -2709818.198 11437638.685 22656753.141 10 0 60991 27900.00000 0 -5037039.745 9859809.518 22998968.117 10 0 60991 28800.00000 0 -7484748.472 8446886.875 22895451.389 10 0 60991 29700.00000 0 -9992127.899 7232063.498 22348240.876 10 0 60991 30600.00000 0 -12493836.070 6237237.678 21367948.842 10 0 60991 31500.00000 0 -14922519.079 5472256.936 19973557.715 10 0 60991 32400.00000 0 -17211421.055 4934679.216 18192056.973 10 0 60991 33300.00000 0 -19296983.605 4610060.700 16057927.485 10 0 60991 34200.00000 0 -21121327.792 4472757.627 13612482.457 10 0 60991 35100.00000 0 -22634516.338 4487208.268 10903076.693 10 0 60991 36000.00000 0 -23796502.405 4609641.126 7982198.420 10 0 60991 36900.00000 0 -24578683.888 4790137.660 4906460.329 10 0 60991 37800.00000 0 -24964998.246 4974962.696 1735508.563 10 0 60991 38700.00000 0 -24952511.755 5109064.295 -1469129.754 10 0 60991 39600.00000 0 -24551477.956 5138637.309 -4645238.324 10 0 60991 40500.00000 0 -23784862.277 5013641.886 -7731119.693 10 0 60991 41400.00000 0 -22687352.142 4690169.715 -10666795.833 10 0 60991 42300.00000 0 -21303893.576 4132556.915 -13395177.481 10 0 60991 43200.00000 0 -19687815.342 3315152.961 -15863179.049 10 0 60991 44100.00000 0 -17898619.060 2223669.339 -18022756.896 10 0 60991 45000.00000 0 -15999527.966 856049.288 -19831850.235 10 0 60991 45900.00000 0 -14054897.127 -777179.881 -21255205.929 10 0 60991 46800.00000 0 -12127593.770 -2653088.597 -22265070.793 10 0 60991 47700.00000 0 -10276457.649 -4737055.141 -22841737.562 10 0 60991 48600.00000 0 -8553947.924 -6983975.894 -22973933.689 10 0 60991 49500.00000 0 -7004075.103 -9339926.476 -22659045.143 10 0 60991 50400.00000 0 -5660704.568 -11744205.366 -21903170.614 10 0 60991 51300.00000 0 -4546302.454 -14131675.382 -20721004.841 10 0 60991 52200.00000 0 -3671175.943 -16435305.671 -19135553.109 10 0 60991 53100.00000 0 -3033239.160 -18588808.194 -17177682.289 10 0 60991 54000.00000 0 -2618313.511 -20529258.503 -14885517.084 10 0 60991 54900.00000 0 -2400948.702 -22199591.077 -12303693.249 10 0 60991 55800.00000 0 -2345728.498 -23550864.602 -9482482.575 10 0 60991 56700.00000 0 -2409004.695 -24544202.200 -6476807.065 10 0 60991 57600.00000 0 -2540984.542 -25152325.329 -3345162.092 10 0 60991 58500.00000 0 -2688081.868 -25360617.264 -148470.301 10 0 60991 59400.00000 0 -2795431.007 -25167672.079 3051110.592 10 0 60991 60300.00000 0 -2809455.886 -24585306.866 6191402.075 10 0 60991 61200.00000 0 -2680384.490 -23638037.717 9211416.744 10 0 60991 62100.00000 0 -2364601.575 -22362042.623 12052543.765 10 0 60991 63000.00000 0 -1826739.624 -20803655.962 14659684.576 10 0 60991 63900.00000 0 -1041419.506 -19017458.758 16982316.856 10 0 60991 64800.00000 0 5432.693 -17064045.502 18975466.530 10 0 60991 65700.00000 0 1315748.161 -15007561.377 20600569.779 10 0 60991 66600.00000 0 2878992.425 -12913112.837 21826209.317 10 0 60991 67500.00000 0 4672370.769 -10844159.165 22628711.894 10 0 60991 68400.00000 0 6661553.869 -8859992.884 22992596.616 10 0 60991 69300.00000 0 8801894.021 -7013412.813 22910866.523 10 0 60991 70200.00000 0 11040082.214 -5348685.179 22385138.584 10 0 60991 71100.00000 0 13316178.266 -3899876.107 21425610.166 10 0 60991 72000.00000 0 15565930.836 -2689623.403 20050862.714 10 0 60991 72900.00000 0 17723292.268 -1728397.397 18287506.247 10 0 60991 73800.00000 0 19723024.981 -1014280.483 16169670.910 10 0 60991 74700.00000 0 21503292.137 -533273.683 13738354.608 10 0 60991 75600.00000 0 23008125.589 -260116.780 11040638.316 10 0 60991 76500.00000 0 24189668.860 -159587.264 8128783.195 10 0 60991 77400.00000 0 25010101.716 -188223.391 5059226.057 10 0 60991 78300.00000 0 25443165.809 -296398.766 1891491.845 10 0 60991 79200.00000 0 25475227.121 -430660.958 -1312956.386 10 0 60991 80100.00000 0 25105830.027 -536235.313 -4491907.885 10 0 60991 81000.00000 0 24347718.951 -559587.831 -7583611.978 10 0 60991 81900.00000 0 23226325.799 -450938.215 -10527979.519 10 0 60991 82800.00000 0 21778743.863 -166615.988 -13267754.254 10 0 60991 83700.00000 0 20052230.482 328841.047 -15749630.863 10 0 60991 84600.00000 0 18102300.676 1060936.020 -17925297.407 10 0 60991 85500.00000 0 15990491.262 2043885.364 -19752381.395 10 0 60992 0.00000 0 13781889.064 3279771.895 -21195280.492 10 0 60992 900.00000 0 11542525.377 4758216.740 -22225862.061 10 0 60992 1800.00000 0 9336748.655 6456583.935 -22824015.749 10 0 60992 2700.00000 0 7224681.330 8340712.924 -22978050.674 10 0 60992 3600.00000 0 5259869.951 10366148.096 -22684927.253 10 0 60992 4500.00000 0 3487225.614 12479815.610 -21950319.740 10 0 60992 5400.00000 0 1941340.633 14622078.127 -20788507.897 10 0 60992 6300.00000 0 645251.419 16729082.018 -19222099.678 10 0 60992 7200.00000 0 -390301.360 18735299.072 -17281590.128 10 0 60992 8100.00000 0 -1167085.286 20576156.334 -15004765.013 10 0 60992 9000.00000 0 -1699053.661 22190643.748 -12435960.769 10 0 60992 9900.00000 0 -2011502.888 23523789.999 -9625195.427 10 0 60992 10800.00000 0 -2139746.869 24528902.418 -6627187.813 10 0 60992 11700.00000 0 -2127365.973 25169476.722 -3500284.692 10 0 60992 12600.00000 0 -2024106.257 25420696.296 -305317.541 10 0 60992 13500.00000 0 -1883519.341 25270458.231 2895587.956 10 0 60992 14400.00000 0 -1760444.287 24719883.401 6040225.686 10 0 60992 15300.00000 0 -1708439.249 23783289.810 9067521.727 10 0 60992 16200.00000 0 -1777272.528 22487631.185 11918721.681 10 0 60992 17100.00000 0 -2010579.766 20871425.248 14538529.390 10 0 60992 18000.00000 0 -2443786.632 18983217.507 16876174.927 10 0 60992 18900.00000 0 -3102384.748 16879645.587 18886391.593 10 0 60992 19800.00000 0 -4000633.500 14623185.449 20530283.716 10 0 60992 20700.00000 0 -5140742.240 12279673.690 21776069.436 10 0 60992 21600.00000 0 -6512567.245 9915708.862 22599685.259 10 0 60992 22500.00000 0 -8093836.292 7596039.272 22985241.883 10 0 60992 23400.00000 0 -9850891.895 5381044.796 22925323.542 10 0 60992 24300.00000 0 -11739922.827 3324416.012 22421125.959 10 0 60992 25200.00000 0 -13708633.548 1471125.493 21482430.763 10 0 60992 26100.00000 0 -15698283.057 -144226.014 20127417.037 10 0 60992 27000.00000 0 -17646009.533 -1498621.284 18382313.418 10 0 60992 27900.00000 0 -19487345.200 -2581347.151 16280896.908 10 0 60992 28800.00000 0 -21158817.740 -3394194.966 13863847.261 10 0 60992 29700.00000 0 -22600530.745 -3951133.476 11177968.429 10 0 60992 30600.00000 0 -23758616.133 -4277468.455 8275291.072 10 0 60992 31500.00000 0 -24587456.294 -4408524.659 5212072.571 10 0 60992 32400.00000 0 -25051582.941 -4387905.752 2047713.088 10 0 60992 33300.00000 0 -25127172.660 -4265405.590 -1156391.886 10 0 60992 34200.00000 0 -24803075.704 -4094659.077 -4338040.516 10 0 60992 35100.00000 0 -24081333.910 -3930632.057 -7435432.074 10 0 60992 36000.00000 0 -22977164.885 -3827056.736 -10388369.234 10 0 60992 36900.00000 0 -21518411.988 -3833921.682 -13139431.419 10 0 60992 37800.00000 0 -19744482.137 -3995123.424 -15635095.920 10 0 60992 38700.00000 0 -17704815.006 -4346379.990 -17826784.468 10 0 60992 39600.00000 0 -15456947.036 -4913495.829 -19671814.376 10 0 60992 40500.00000 0 -13064250.715 -5711052.763 -21134235.324 10 0 60992 41400.00000 0 -10593443.287 -6741583.716 -22185535.135 10 0 60992 42300.00000 0 -8111968.763 -7995265.538 -22805200.494 10 0 60992 43200.00000 0 -5685362.410 -9450145.350 -22981121.453 10 0 60992 44100.00000 0 -3374707.544 -11072892.282 -22709831.623 10 0 60992 45000.00000 0 -1234290.662 -12820044.192 -21996579.108 10 0 60992 45900.00000 0 690447.534 -14639698.009 -20855226.611 10 0 60992 46800.00000 0 2364580.063 -16473573.446 -19307982.375 10 0 60992 47700.00000 0 3764911.451 -18259363.862 -17384967.032 10 0 60992 48600.00000 0 4880695.309 -19933275.733 -15123624.673 10 0 60992 49500.00000 0 5713822.738 -21432650.011 -12567989.596 10 0 60992 50400.00000 0 6278475.054 -22698554.917 -9767823.226 10 0 60992 51300.00000 0 6600256.996 -23678240.838 -6777638.384 10 0 60992 52200.00000 0 6714848.666 -24327353.703 -3655630.467 10 0 60992 53100.00000 0 6666234.877 -24611813.402 -462537.126 10 0 60992 54000.00000 0 6504588.440 -24509278.113 2739550.514 10 0 60992 54900.00000 0 6283898.545 -24010132.979 5888401.109 10 0 60992 55800.00000 0 6059445.953 -23117961.876 8922856.397 10 0 60992 56700.00000 0 5885232.944 -21849482.934 11784020.404 10 0 60992 57600.00000 0 5811477.489 -20233951.147 14416401.120 10 0 60992 58500.00000 0 5882278.001 -18312053.783 16768982.507 10 0 60992 59400.00000 0 6133547.353 -16134345.399 18796206.439 10 0 60992 60300.00000 0 6591303.205 -13759288.245 20458846.278 10 0 60992 61200.00000 0 7270386.351 -11250979.914 21724756.128 10 0 60992 62100.00000 0 8173660.714 -8676662.626 22569482.449 10 0 60992 63000.00000 0 9291728.430 -6104117.064 22976727.379 10 0 60992 63900.00000 0 10603172.013 -3599048.072 22938655.885 10 0 60992 64800.00000 0 12075313.824 -1222569.395 22456041.681 10 0 60992 65700.00000 0 13665461.705 971109.677 21538249.650 10 0 60992 66600.00000 0 15322589.661 2936701.363 20203055.284 10 0 60992 67500.00000 0 16989384.483 4639478.013 18476304.431 10 0 60992 68400.00000 0 18604574.063 6056465.657 16391419.380 10 0 60992 69300.00000 0 20105441.290 7177144.082 13988760.004 10 0 60992 70200.00000 0 21430419.486 8003625.288 11314851.352 10 0 60992 71100.00000 0 22521661.557 8550303.631 8421491.546 10 0 60992 72000.00000 0 23327475.712 8842992.831 5364756.342 10 0 60992 72900.00000 0 23804525.682 8917586.399 2203918.789 10 0 60992 73800.00000 0 23919702.772 8818298.008 -999695.634 10 0 60992 74700.00000 0 23651590.434 8595556.085 -4183896.497 10 0 60992 75600.00000 0 22991458.797 8303641.656 -7286835.497 10 0 60992 76500.00000 0 21943746.149 7998169.470 -10248209.515 10 0 60992 77400.00000 0 20526005.787 7733519.320 -13010435.873 10 0 60992 78300.00000 0 18768319.095 7560326.769 -15519776.487 10 0 60992 79200.00000 0 16712198.188 7523140.184 -17727388.544 10 0 60992 80100.00000 0 14409022.994 7658344.058 -19590280.723 10 0 60992 81000.00000 0 11918077.236 7992437.460 -21072155.954 10 0 60992 81900.00000 0 9304264.717 8540741.483 -22144123.939 10 0 60992 82800.00000 0 6635600.752 9306591.451 -22785269.221 10 0 60992 83700.00000 0 3980583.078 10281049.141 -22983063.543 10 0 60992 84600.00000 0 1405551.563 11443148.358 -22733614.206 10 0 60992 85500.00000 0 -1027853.397 12760664.501 -22041743.362 10 0 60993 0.00000 0 -3265027.930 14191376.547 -20920896.599 10 0 60993 900.00000 0 -5260441.238 15684769.775 -19392881.680 10 0 60993 1800.00000 0 -6979284.197 17184106.087 -17487443.908 10 0 60993 2700.00000 0 -8398665.840 18628777.549 -15241684.289 10 0 60993 3600.00000 0 -9508305.584 19956842.126 -12699333.182 10 0 60993 4500.00000 0 -10310694.652 21107635.296 -9909893.258 10 0 60993 5400.00000 0 -10820721.162 22024347.008 -6927668.889 10 0 60993 6300.00000 0 -11064776.340 22656454.887 -3810701.417 10 0 60993 7200.00000 0 -11079381.276 22961910.691 -619631.801 10 0 60993 8100.00000 0 -10909394.024 22908987.454 2583486.373 10 0 60993 9000.00000 0 -10605874.501 22477709.330 5736399.571 10 0 60993 9900.00000 0 -10223699.013 21660803.876 8777868.245 10 0 60993 10800.00000 0 -9819026.570 20464136.912 11648857.825 10 0 60993 11700.00000 0 -9446725.040 18906612.013 14293683.330 10 0 60993 12600.00000 0 -9157866.471 17019539.264 16661085.316 10 0 60993 13500.00000 0 -8997397.504 14845500.097 18705216.722 10 0 60993 14400.00000 0 -9002082.982 12436755.911 20386522.161 10 0 60993 15300.00000 0 -9198809.002 9853266.918 21672493.608 10 0 60993 16200.00000 0 -9603316.275 7160403.471 22538289.019 10 0 60993 17100.00000 0 -10219416.541 4426444.374 22967203.097 10 0 60993 18000.00000 0 -11038724.557 1719965.190 22950982.203 10 0 60993 18900.00000 0 -12040916.803 -892776.426 22489978.202 10 0 60993 19800.00000 0 -13194506.270 -3350351.392 21593138.850 10 0 60993 20700.00000 0 -14458101.409 -5598463.357 20277835.111 10 0 60993 21600.00000 0 -15782097.357 -7591952.401 18569528.556 10 0 60993 22500.00000 0 -17110729.661 -9296416.614 16501284.741 10 0 60993 23400.00000 0 -18384405.572 -10689385.472 14113141.177 10 0 60993 24300.00000 0 -19542216.300 -11760997.263 11451341.119 10 0 60993 25200.00000 0 -20524525.733 -12514153.187 8567446.958 10 0 60993 26100.00000 0 -21275527.585 -12964142.227 5517349.417 10 0 60993 27000.00000 0 -21745663.751 -13137752.964 2360190.919 10 0 60993 27900.00000 0 -21893802.048 -13071909.807 -842776.620 10 0 60993 28800.00000 0 -21689081.111 -12811891.200 -4029377.685 10 0 60993 29700.00000 0 -21112343.882 -12409204.976 -7137719.800 10 0 60993 30600.00000 0 -20157098.083 -11919210.708 -10107397.310 10 0 60993 31500.00000 0 -18829961.821 -11398589.731 -12880668.491 10 0 60993 32400.00000 0 -17150574.038 -10902770.153 -15403582.676 10 0 60993 33300.00000 0 -15150971.971 -10483416.222 -17627034.948 10 0 60993 34200.00000 0 -12874460.304 -10186088.843 -19507727.378 10 0 60993 35100.00000 0 -10374018.053 -10048176.835 -21009017.662 10 0 60993 36000.00000 0 -7710308.735 -10097187.192 -22101638.309 10 0 60993 36900.00000 0 -4949376.064 -10349467.379 -22764272.050 10 0 60993 37800.00000 0 -2160120.679 -10809414.460 -22983972.022 10 0 60993 38700.00000 0 588337.423 -11469205.307 -22756418.352 10 0 60993 39600.00000 0 3229301.172 -12309059.983 -22086005.858 10 0 60993 40500.00000 0 5701033.654 -13298027.919 -20985760.969 10 0 60993 41400.00000 0 7949084.876 -14395264.225 -19477089.205 10 0 60993 42300.00000 0 9928311.395 -15551742.674 -17589357.924 10 0 60993 43200.00000 0 11604505.051 -16712333.231 -15359322.355 10 0 60993 44100.00000 0 12955563.508 -17818156.418 -12830406.020 10 0 60993 45000.00000 0 13972154.519 -18809114.855 -10051849.776 10 0 60993 45900.00000 0 14657847.389 -19626494.669 -7077746.363 10 0 60993 46800.00000 0 15028707.550 -20215526.363 -3965979.811 10 0 60993 47700.00000 0 15112373.020 -20527796.440 -777091.131 10 0 60993 48600.00000 0 14946653.440 -20523407.397 2426906.826 10 0 60993 49500.00000 0 14577712.591 -20172794.527 5583741.370 10 0 60993 50400.00000 0 14057912.787 -19458122.632 8632094.457 10 0 60993 51300.00000 0 13443413.681 -18374203.723 11512795.413 10 0 60993 52200.00000 0 12791627.980 -16928897.165 14169968.398 10 0 60993 53100.00000 0 12158642.266 -15142975.633 16552112.281 10 0 60993 54000.00000 0 11596712.041 -13049462.673 18613092.342 10 0 60993 54900.00000 0 11151936.483 -10692469.689 20313025.285 10 0 60993 55800.00000 0 10862210.419 -8125580.864 21619041.360 10 0 60993 56700.00000 0 10755538.973 -5409852.991 22505909.994 10 0 60993 57600.00000 0 10848784.921 -2611512.780 22956518.039 10 0 60993 58500.00000 0 11146900.628 200553.612 22962192.464 10 0 60993 59400.00000 0 11642676.185 2957415.906 22522862.177 10 0 60993 60300.00000 0 12317014.024 5592712.920 21647056.426 10 0 60993 61200.00000 0 13139718.526 8045156.886 20351740.040 10 0 60993 62100.00000 0 14070767.896 10260826.653 18661988.517 10 0 60993 63000.00000 0 15062015.628 12195156.187 16610508.742 10 0 60993 63900.00000 0 16059251.051 13814537.066 14237013.793 10 0 60993 64800.00000 0 17004533.379 15097469.480 11587462.959 10 0 60993 65700.00000 0 17838702.087 16035214.617 8713180.633 10 0 60993 66600.00000 0 18503958.709 16631921.806 5669870.154 10 0 60993 67500.00000 0 18946411.807 16904225.462 2516540.903 10 0 60993 68400.00000 0 19118477.915 16880328.981 -685631.199 10 0 60993 69300.00000 0 18981036.881 16598614.117 -3874487.957 10 0 60993 70200.00000 0 18505249.945 16105834.447 -6988095.048 10 0 60993 71100.00000 0 17673962.767 15454969.098 -9965946.449 10 0 60993 72000.00000 0 16482632.823 14702827.403 -12750143.365 10 0 60993 72900.00000 0 14939740.478 13907505.825 -15286524.292 10 0 60993 73800.00000 0 13066664.702 13125804.848 -17525723.732 10 0 60993 74700.00000 0 10897026.941 12410715.376 -19424138.447 10 0 60993 75600.00000 0 8475529.017 11809081.253 -20944782.016 10 0 60993 76500.00000 0 5856332.274 11359537.163 -22058010.715 10 0 60993 77400.00000 0 3101044.511 11090809.493 -22742106.254 10 0 60993 78300.00000 0 276397.795 11020452.419 -22983703.795 10 0 60993 79200.00000 0 -2548286.808 11154073.041 -22778056.697 10 0 60993 80100.00000 0 -5303742.397 11485078.706 -22129132.574 10 0 60993 81000.00000 0 -7923397.618 11994957.525 -21049538.603 10 0 60993 81900.00000 0 -10345906.530 12654080.524 -19560277.257 10 0 60993 82800.00000 0 -12517461.761 13422991.639 -17690337.033 10 0 60993 83700.00000 0 -14393794.866 14254131.079 -15476125.994 10 0 60993 84600.00000 0 -15941780.821 15093919.003 -12960759.095 10 0 60993 85500.00000 0 -17140580.248 15885111.073 -10193213.361 10 0 60994 0.00000 0 -17982272.430 16569325.698 -7227367.925 10 0 60994 900.00000 0 -18471954.148 17089635.769 -4120946.565 10 0 60994 1800.00000 0 -18627300.604 17393113.683 -934388.054 10 0 60994 2700.00000 0 -18477610.016 17433222.580 2270338.111 10 0 60994 3600.00000 0 -18062372.677 17171951.154 5430942.783 10 0 60994 4500.00000 0 -17429427.025 16581601.806 8486032.162 10 0 60994 5400.00000 0 -16632781.956 15646156.314 11376302.223 10 0 60994 6300.00000 0 -15730198.552 14362161.347 14045688.994 10 0 60994 7200.00000 0 -14780634.096 12739096.545 16442452.297 10 0 60994 8100.00000 0 -13841656.618 10799209.729 18520172.255 10 0 60994 9000.00000 0 -12966938.845 8576826.119 20238639.955 10 0 60994 9900.00000 0 -12203936.610 6117160.279 21564625.932 10 0 60994 10800.00000 0 -11591848.569 3474679.999 22472512.764 10 0 60994 11700.00000 0 -11159941.904 711089.544 22944780.735 10 0 60994 12600.00000 0 -10926313.241 -2106984.752 22972338.280 10 0 60994 13500.00000 0 -10897135.746 -4910511.720 22554691.743 10 0 60994 14400.00000 0 -11066423.163 -7630672.418 21699951.773 10 0 60994 15300.00000 0 -11416320.191 -10201470.037 20424676.469 10 0 60994 16200.00000 0 -11917906.868 -12562226.028 18753554.177 10 0 60994 17100.00000 0 -12532483.399 -14659860.452 16718931.554 10 0 60994 18000.00000 0 -13213281.967 -16450863.139 14360195.258 10 0 60994 18900.00000 0 -13907534.251 -17902874.860 11723018.251 10 0 60994 19800.00000 0 -14558808.433 -18995813.513 8858484.249 10 0 60994 20700.00000 0 -15109517.941 -19722498.863 5822106.303 10 0 60994 21600.00000 0 -15503496.666 -20088750.072 2672757.679 10 0 60994 22500.00000 0 -15688532.203 -20112952.059 -528464.872 10 0 60994 23400.00000 0 -15618749.970 -19825108.848 -3719423.715 10 0 60994 24300.00000 0 -15256746.970 -19265423.644 -6838145.926 10 0 60994 25200.00000 0 -14575384.097 -18482465.285 -9824028.343 10 0 60994 26100.00000 0 -13559160.031 -17530998.309 -12619018.255 10 0 60994 27000.00000 0 -12205107.161 -16469568.146 -15168746.337 10 0 60994 27900.00000 0 -10523170.034 -15357943.427 -17423589.300 10 0 60994 28800.00000 0 -8536048.532 -14254523.507 -19339641.073 10 0 60994 29700.00000 0 -6278510.568 -13213820.846 -20879573.182 10 0 60994 30600.00000 0 -3796201.360 -12284124.719 -22013367.238 10 0 60994 31500.00000 0 -1143997.638 -11505445.073 -22718904.953 10 0 60994 32400.00000 0 1616025.751 -10907823.500 -22982403.960 10 0 60994 33300.00000 0 4416932.983 -10510082.714 -22798690.740 10 0 60994 34200.00000 0 7189471.445 -10319067.411 -22171305.084 10 0 60994 35100.00000 0 9864717.474 -10329408.571 -21112433.829 10 0 60994 36000.00000 0 12376713.774 -10523821.049 -19642674.907 10 0 60994 36900.00000 0 14664988.775 -10873921.768 -17790636.077 10 0 60994 37800.00000 0 16676853.087 -11341533.590 -15592375.993 10 0 60994 38700.00000 0 18369377.436 -11880419.358 -13090698.454 10 0 60994 39600.00000 0 19710969.783 -12438372.154 -10334313.713 10 0 60994 40500.00000 0 20682486.236 -12959572.653 -7376883.511 10 0 60994 41400.00000 0 21277830.061 -13387112.942 -4275968.937 10 0 60994 42300.00000 0 21504014.752 -13665579.142 -1091902.358 10 0 60994 43200.00000 0 21380689.908 -13743582.624 2113393.799 10 0 60994 44100.00000 0 20939151.401 -13576131.970 5277617.554 10 0 60994 45000.00000 0 20220879.126 -13126744.693 8339302.768 10 0 60994 45900.00000 0 19275665.487 -12369209.057 11239015.148 10 0 60994 46800.00000 0 18159414.832 -11288921.338 13920505.263 10 0 60994 47700.00000 0 16931707.578 -9883742.011 16331796.081 10 0 60994 48600.00000 0 15653232.184 -8164334.773 18426184.262 10 0 60994 49500.00000 0 14383193.190 -6153974.052 20163136.466 10 0 60994 50400.00000 0 13176803.920 -3887828.849 21509064.215 10 0 60994 51300.00000 0 12082968.432 -1411752.458 22437963.466 10 0 60994 52200.00000 0 11142248.855 1219372.152 22931907.732 10 0 60994 53100.00000 0 10385202.114 3943663.278 22981386.290 10 0 60994 54000.00000 0 9831154.378 6694564.538 22585481.918 10 0 60994 54900.00000 0 9487463.384 9403366.944 21751885.315 10 0 60994 55800.00000 0 9349298.533 12001825.848 20496746.202 10 0 60994 56700.00000 0 9399947.291 14424765.752 18844363.861 10 0 60994 57600.00000 0 9611634.725 16612566.429 16826722.590 10 0 60994 58500.00000 0 9946821.759 18513428.367 14482880.324 10 0 60994 59400.00000 0 10359927.880 20085324.492 11858221.241 10 0 60994 60300.00000 0 10799406.293 21297557.693 9003585.817 10 0 60994 61200.00000 0 11210084.583 22131859.710 5974294.154 10 0 60994 62100.00000 0 11535672.638 22582985.679 2829080.694 10 0 60994 63000.00000 0 11721332.172 22658779.522 -371039.698 10 0 60994 63900.00000 0 11716199.269 22379707.221 -3563952.593 10 0 60994 64800.00000 0 11475752.888 21777877.378 -6687648.993 10 0 60994 65700.00000 0 10963928.463 20895589.945 -9681430.933 10 0 60994 66600.00000 0 10154886.122 19783473.963 -12487093.875 10 0 60994 67500.00000 0 9034357.385 18498292.575 -15050062.494 10 0 60994 68400.00000 0 7600511.814 17100507.656 -17320457.268 10 0 60994 69300.00000 0 5864305.271 15651706.710 -19254070.593 10 0 60994 70200.00000 0 3849293.176 14212000.466 -20813233.022 10 0 60994 71100.00000 0 1590914.756 12837500.876 -21967552.378 10 0 60994 72000.00000 0 -864723.459 11577985.836 -22694511.059 10 0 60994 72900.00000 0 -3462515.494 10474848.982 -22979909.647 10 0 60994 73800.00000 0 -6140406.756 9559420.861 -22818147.971 10 0 60994 74700.00000 0 -8831743.144 8851732.061 -22212337.915 10 0 60994 75600.00000 0 -11467821.189 8359770.172 -21174245.540 10 0 60994 76500.00000 0 -13980533.346 8079261.549 -19724063.406 10 0 60994 77400.00000 0 -16304998.319 7993986.602 -17890017.299 10 0 60994 78300.00000 0 -18382066.827 8076614.752 -15707814.873 10 0 60994 79200.00000 0 -20160598.263 8290023.034 -13219946.864 10 0 60994 80100.00000 0 -21599413.189 8589041.793 -10474854.615 10 0 60994 81000.00000 0 -22668840.237 8922552.655 -7525980.441 10 0 60994 81900.00000 0 -23351793.102 9235848.974 -4430719.794 10 0 60994 82800.00000 0 -23644333.143 9473157.698 -1249296.409 10 0 60994 83700.00000 0 -23555695.032 9580214.832 1956416.891 10 0 60994 84600.00000 0 -23107775.565 9506784.488 5124107.868 10 0 60994 85500.00000 0 -22334108.598 9209014.053 8192240.646 99